VLG010 LICR-LIBR

Flight info

Callsign VLG010
Flight time 0h 43m
Altitude 28000
Route RCA DCT CDC DCT DIPOK DCT ROBOT
Aircraft A320/M-SDE3FGHIRWY/LB1

Departure

Time 2026-04-16 13:43
Airport Reggio Calabria Airport (LICR)

Arrival

Time 2026-04-16 14:27
Airport Brindisi Airport (LIBR)
Time Latitude Longitude Altitude Speed Heading
2026-04-16 13:17 38.07304 15.65341 59 ft 0 kts 109°
2026-04-16 13:35 38.07308 15.65327 56 ft 4 kts 38°
2026-04-16 13:36 38.07296 15.65305 63 ft 4 kts 81°
2026-04-16 13:36 38.07300 15.65277 59 ft 4 kts 140°
2026-04-16 13:36 38.07321 15.65261 59 ft 1 kts 153°
2026-04-16 13:36 38.07321 15.65260 59 ft 0 kts 153°
2026-04-16 13:38 38.07321 15.65261 65 ft 0 kts 153°
2026-04-16 13:38 38.07310 15.65268 62 ft 4 kts 153°
2026-04-16 13:39 38.07309 15.65282 57 ft 1 kts 33°
2026-04-16 13:39 38.07326 15.65264 65 ft 5 kts 322°
2026-04-16 13:39 38.07332 15.65224 63 ft 6 kts 259°
2026-04-16 13:39 38.07300 15.65135 54 ft 16 kts 244°
2026-04-16 13:40 38.07338 15.65017 55 ft 17 kts 335°
2026-04-16 13:40 38.07433 15.64951 58 ft 15 kts 332°
2026-04-16 13:40 38.07521 15.64892 66 ft 14 kts 334°
2026-04-16 13:40 38.07635 15.64822 74 ft 20 kts 333°
2026-04-16 13:41 38.07767 15.64735 84 ft 23 kts 332°
2026-04-16 13:41 38.07919 15.64635 94 ft 25 kts 333°
2026-04-16 13:41 38.08076 15.64533 101 ft 22 kts 335°
2026-04-16 13:41 38.08122 15.64520 104 ft 1 kts 338°
2026-04-16 13:42 38.08119 15.64511 104 ft 1 kts 248°
2026-04-16 13:42 38.08095 15.64524 103 ft 9 kts 155°
2026-04-16 13:42 38.08081 15.64533 102 ft 4 kts 154°
2026-04-16 13:42 38.07840 15.64681 92 ft 81 kts 153°
2026-04-16 13:43 38.07147 15.65135 51 ft 139 kts 153°
2026-04-16 13:43 38.06233 15.65718 524 ft 141 kts 157°
2026-04-16 13:43 38.05270 15.66018 1013 ft 151 kts 185°
2026-04-16 13:43 38.04277 15.65486 1432 ft 166 kts 219°
2026-04-16 13:44 38.03578 15.64204 1686 ft 187 kts 241°
2026-04-16 13:44 38.02767 15.62858 2076 ft 201 kts 216°
2026-04-16 13:44 38.01512 15.61988 2643 ft 209 kts 202°
2026-04-16 13:44 38.00164 15.61227 3332 ft 214 kts 204°
2026-04-16 13:45 37.98807 15.60467 4164 ft 212 kts 202°
2026-04-16 13:45 37.97453 15.59700 4942 ft 214 kts 202°
2026-04-16 13:45 37.96087 15.58922 5670 ft 217 kts 201°
2026-04-16 13:45 37.94702 15.58130 6394 ft 220 kts 201°
2026-04-16 13:46 37.93296 15.57322 7089 ft 223 kts 201°
2026-04-16 13:46 37.92008 15.56191 7758 ft 232 kts 227°
2026-04-16 13:46 37.91287 15.54333 8435 ft 242 kts 260°
2026-04-16 13:46 37.91445 15.52241 9090 ft 247 kts 295°
2026-04-16 13:47 37.92477 15.50530 9761 ft 245 kts 329°
2026-04-16 13:47 37.94025 15.49772 10392 ft 238 kts
2026-04-16 13:47 37.95618 15.50104 11034 ft 231 kts 31°
2026-04-16 13:47 37.96874 15.51315 11677 ft 228 kts 47°
2026-04-16 13:48 37.98015 15.52718 12358 ft 230 kts 47°
2026-04-16 13:48 37.99175 15.54145 13043 ft 233 kts 46°
2026-04-16 13:48 38.00346 15.55584 13721 ft 236 kts 46°
2026-04-16 13:48 38.01536 15.57042 14343 ft 239 kts 45°
2026-04-16 13:49 38.02742 15.58515 14952 ft 242 kts 45°
2026-04-16 13:49 38.03949 15.59987 15557 ft 245 kts 45°
2026-04-16 13:49 38.05202 15.61512 16186 ft 248 kts 45°
2026-04-16 13:49 38.06435 15.63019 16794 ft 251 kts 45°
2026-04-16 13:50 38.07694 15.64565 17401 ft 254 kts 45°
2026-04-16 13:50 38.09053 15.66115 17643 ft 274 kts 41°
2026-04-16 13:50 38.10569 15.67728 17784 ft 294 kts 42°
2026-04-16 13:50 38.12211 15.69431 17919 ft 314 kts 41°
2026-04-16 13:51 38.12373 15.69598 17930 ft 316 kts 40°
2026-04-16 13:52 38.13164 15.70395 18002 ft 323 kts 40°
2026-04-16 13:52 38.14968 15.72240 18141 ft 341 kts 40°
2026-04-16 13:52 38.16850 15.74205 18277 ft 358 kts 41°
2026-04-16 13:53 38.18812 15.76273 18405 ft 374 kts 41°
2026-04-16 13:53 38.20852 15.78434 18525 ft 389 kts 42°
2026-04-16 13:53 38.22931 15.80637 18823 ft 397 kts 42°
2026-04-16 13:53 38.25063 15.82895 19317 ft 400 kts 41°
2026-04-16 13:54 38.27214 15.85172 19787 ft 404 kts 41°
2026-04-16 13:54 38.29382 15.87470 20306 ft 407 kts 41°
2026-04-16 13:54 38.31559 15.89783 20830 ft 410 kts 41°
2026-04-16 13:54 38.33758 15.92123 21325 ft 412 kts 41°
2026-04-16 13:55 38.35965 15.94473 21782 ft 415 kts 41°
2026-04-16 13:55 38.38191 15.96837 22233 ft 417 kts 41°
2026-04-16 13:55 38.40425 15.99210 22681 ft 420 kts 41°
2026-04-16 13:55 38.42676 16.01609 23060 ft 424 kts 41°
2026-04-16 13:56 38.44948 16.04034 23457 ft 427 kts 42°
2026-04-16 13:56 38.47238 16.06478 23822 ft 430 kts 41°
2026-04-16 13:56 38.49541 16.08932 24157 ft 433 kts 41°
2026-04-16 13:56 38.51860 16.11403 24503 ft 435 kts 41°
2026-04-16 13:57 38.54185 16.13885 24862 ft 437 kts 41°
2026-04-16 13:57 38.56520 16.16387 25212 ft 439 kts 41°
2026-04-16 13:57 38.58864 16.18904 25561 ft 441 kts 41°
2026-04-16 13:58 38.63578 16.23968 26276 ft 445 kts 41°
2026-04-16 13:58 38.65957 16.26524 26627 ft 447 kts 41°
2026-04-16 13:58 38.68341 16.29092 26952 ft 449 kts 42°
2026-04-16 13:58 38.70707 16.31646 27298 ft 451 kts 42°
2026-04-16 13:59 38.73103 16.34231 27755 ft 449 kts 41°
2026-04-16 13:59 38.75538 16.36749 28009 ft 451 kts 37°
2026-04-16 13:59 38.80962 16.40972 28040 ft 458 kts 32°
2026-04-16 14:00 38.86449 16.45107 28030 ft 458 kts 33°
2026-04-16 14:00 38.91935 16.49268 28047 ft 458 kts 33°
2026-04-16 14:01 38.97414 16.53437 28059 ft 458 kts 33°
2026-04-16 14:01 39.02892 16.57610 28073 ft 458 kts 33°
2026-04-16 14:02 39.08371 16.61782 28074 ft 458 kts 33°
2026-04-16 14:02 39.13849 16.65967 28082 ft 458 kts 34°
2026-04-16 14:03 39.19338 16.70163 28090 ft 458 kts 33°
2026-04-16 14:03 39.25141 16.73613 28093 ft 461 kts 24°
2026-04-16 14:04 39.31141 16.76559 28097 ft 460 kts 23°
2026-04-16 14:04 39.37123 16.79503 28089 ft 460 kts 24°
2026-04-16 14:05 39.43097 16.82447 28087 ft 460 kts 24°
2026-04-16 14:05 39.49070 16.85404 28089 ft 459 kts 24°
2026-04-16 14:06 39.55001 16.88346 28085 ft 459 kts 24°
2026-04-16 14:06 39.60971 16.91308 28072 ft 459 kts 24°
2026-04-16 14:07 39.66930 16.94277 28058 ft 459 kts 23°
2026-04-16 14:07 39.72879 16.97240 28076 ft 457 kts 23°
2026-04-16 14:08 39.78807 17.00207 28079 ft 456 kts 23°
2026-04-16 14:08 39.84724 17.03166 28074 ft 455 kts 23°
2026-04-16 14:09 39.90639 17.06136 28041 ft 455 kts 22°
2026-04-16 14:09 39.96547 17.09096 28039 ft 455 kts 22°
2026-04-16 14:10 40.02455 17.12059 28044 ft 455 kts 22°
2026-04-16 14:10 40.08354 17.15034 28022 ft 455 kts 22°
2026-04-16 14:11 40.14223 17.18010 28025 ft 455 kts 22°
2026-04-16 14:11 40.20136 17.20996 28021 ft 456 kts 22°
2026-04-16 14:12 40.23090 17.22486 27750 ft 452 kts 22°
2026-04-16 14:12 40.26047 17.23981 26284 ft 463 kts 22°
2026-04-16 14:12 40.29063 17.25512 25441 ft 462 kts 22°
2026-04-16 14:12 40.32019 17.27014 24951 ft 451 kts 22°
2026-04-16 14:13 40.34941 17.28502 24158 ft 449 kts 22°
2026-04-16 14:13 40.36868 17.29485 23644 ft 448 kts 22°
2026-04-16 14:13 40.39763 17.30961 22787 ft 445 kts 22°
2026-04-16 14:13 40.42635 17.32424 22039 ft 440 kts 22°
2026-04-16 14:14 40.45471 17.33867 21287 ft 435 kts 22°
2026-04-16 14:14 40.48281 17.35295 20543 ft 430 kts 22°
2026-04-16 14:14 40.51060 17.36713 19808 ft 426 kts 24°
2026-04-16 14:14 40.53812 17.38121 19086 ft 422 kts 22°
2026-04-16 14:15 40.56533 17.39518 18378 ft 418 kts 24°
2026-04-16 14:15 40.59227 17.40903 17639 ft 413 kts 24°
2026-04-16 14:15 40.61885 17.42272 16998 ft 408 kts 22°
2026-04-16 14:15 40.64505 17.43662 16381 ft 402 kts 29°
2026-04-16 14:16 40.66799 17.45670 15776 ft 393 kts 44°
2026-04-16 14:16 40.68533 17.48385 15191 ft 386 kts 59°
2026-04-16 14:16 40.69619 17.51532 14555 ft 381 kts 75°
2026-04-16 14:16 40.70025 17.54944 13895 ft 377 kts 90°
2026-04-16 14:17 40.69786 17.58385 13168 ft 375 kts 99°
2026-04-16 14:17 40.69421 17.61765 12472 ft 372 kts 100°
2026-04-16 14:17 40.69062 17.65132 11785 ft 370 kts 99°
2026-04-16 14:17 40.68708 17.68495 11134 ft 368 kts 101°
2026-04-16 14:18 40.68367 17.71763 10965 ft 352 kts 101°
2026-04-16 14:18 40.68042 17.74888 10835 ft 337 kts 99°
2026-04-16 14:18 40.67727 17.77880 10715 ft 323 kts 101°
2026-04-16 14:18 40.67422 17.80760 10589 ft 312 kts 101°
2026-04-16 14:19 40.67125 17.83540 10457 ft 301 kts 99°
2026-04-16 14:19 40.66836 17.86225 10294 ft 293 kts 100°
2026-04-16 14:19 40.66552 17.88859 10228 ft 289 kts 101°
2026-04-16 14:19 40.66267 17.91481 10144 ft 289 kts 101°
2026-04-16 14:20 40.65977 17.94098 10024 ft 289 kts 104°
2026-04-16 14:20 40.65415 17.96648 9412 ft 294 kts 116°
2026-04-16 14:20 40.64590 17.99131 8597 ft 297 kts 116°
2026-04-16 14:20 40.63756 18.01594 7819 ft 299 kts 115°
2026-04-16 14:21 40.62902 18.04108 7049 ft 301 kts 115°
2026-04-16 14:21 40.62026 18.06606 6369 ft 296 kts 116°
2026-04-16 14:21 40.61134 18.08923 5926 ft 273 kts 121°
2026-04-16 14:21 40.60011 18.10827 5496 ft 255 kts 137°
2026-04-16 14:22 40.58583 18.11986 5235 ft 232 kts 167°
2026-04-16 14:22 40.57085 18.11763 4945 ft 213 kts 212°
2026-04-16 14:22 40.56266 18.10345 4695 ft 188 kts 257°
2026-04-16 14:22 40.56199 18.08674 4243 ft 183 kts 279°
2026-04-16 14:23 40.56629 18.07140 3819 ft 176 kts 303°
2026-04-16 14:23 40.57277 18.05792 3416 ft 172 kts 306°
2026-04-16 14:23 40.57938 18.04509 3024 ft 166 kts 310°
2026-04-16 14:23 40.58667 18.03438 2764 ft 150 kts 318°
2026-04-16 14:24 40.59370 18.02519 2557 ft 136 kts 320°
2026-04-16 14:24 40.60101 18.01706 2083 ft 141 kts 323°
2026-04-16 14:24 40.60814 18.00863 1771 ft 134 kts 322°
2026-04-16 14:24 40.61484 18.00043 1402 ft 131 kts 322°
2026-04-16 14:25 40.62148 17.99228 1029 ft 130 kts 320°
2026-04-16 14:25 40.62795 17.98413 742 ft 125 kts 319°
2026-04-16 14:25 40.63451 17.97632 565 ft 131 kts 320°
2026-04-16 14:25 40.64106 17.96816 429 ft 131 kts 317°
2026-04-16 14:26 40.64773 17.95999 289 ft 129 kts 318°
2026-04-16 14:26 40.65420 17.95205 141 ft 124 kts 316°
2026-04-16 14:26 40.66016 17.94472 53 ft 104 kts 317°
2026-04-16 14:26 40.66432 17.93963 52 ft 59 kts 317°
2026-04-16 14:27 40.66650 17.93694 52 ft 27 kts 316°
2026-04-16 14:27 40.66744 17.93614 53 ft 5 kts 31°
2026-04-16 14:27 40.66766 17.93660 52 ft 6 kts 51°
2026-04-16 14:27 40.66797 17.93707 52 ft 7 kts 48°
2026-04-16 14:28 40.66814 17.93767 54 ft 8 kts 104°
2026-04-16 14:28 40.66779 17.93834 52 ft 10 kts 137°
2026-04-16 14:28 40.66721 17.93903 55 ft 13 kts 138°
2026-04-16 14:28 40.66651 17.93988 52 ft 15 kts 136°
2026-04-16 14:29 40.66574 17.94086 51 ft 16 kts 135°
2026-04-16 14:29 40.66493 17.94186 50 ft 16 kts 137°
2026-04-16 14:29 40.66415 17.94280 55 ft 11 kts 137°
2026-04-16 14:29 40.66362 17.94346 53 ft 6 kts 137°
2026-04-16 14:30 40.66342 17.94370 53 ft 5 kts 137°
2026-04-16 14:30 40.66307 17.94413 55 ft 9 kts 137°
2026-04-16 14:30 40.66256 17.94475 53 ft 11 kts 137°
2026-04-16 14:30 40.66193 17.94551 53 ft 13 kts 136°
2026-04-16 14:31 40.66162 17.94589 53 ft 14 kts 136°
2026-04-16 14:31 40.66083 17.94687 53 ft 17 kts 136°
2026-04-16 14:31 40.65991 17.94641 52 ft 18 kts 230°
2026-04-16 14:31 40.65909 17.94499 52 ft 21 kts 232°
2026-04-16 14:32 40.65816 17.94341 53 ft 23 kts 232°
2026-04-16 14:32 40.65717 17.94165 55 ft 25 kts 234°
2026-04-16 14:32 40.65660 17.94052 52 ft 6 kts 295°
2026-04-16 14:32 40.65694 17.94012 56 ft 6 kts 323°
2026-04-16 14:33 40.65719 17.93988 52 ft 1 kts 329°
2026-04-16 14:33 40.65730 17.93987 54 ft 2 kts 358°
2026-04-16 14:33 40.65735 17.93987 54 ft 0 kts